• In Romania
  • List of Countries
  • For 7 days
  • Water Temperature
  • Satellite Maps
  • Weather Map
  • Weather Widgets
  • user-avatar
    Login

    Hourly Weather Malanje

    Today, 25 February, Saturday

    Time Temperature Precipitation Wind Pressure Humidity
    00:00 +20°C° 0.1 mm 3 mps 665 mmHg 82%
    01:00 +19°C° 0 mm 3 mps 665 mmHg 93%
    02:00 +19°C° 0 mm 3 mps 665 mmHg 93%
    03:00 +19°C° 0 mm 3 mps 665 mmHg 93%
    04:00 +19°C° 0 mm 4 mps 665 mmHg 93%
    05:00 +19°C° 0 mm 4 mps 665 mmHg 92%
    06:00 +19°C° 0 mm 4 mps 665 mmHg 92%
    07:00 +19°C° 0 mm 4 mps 665 mmHg 90%
    08:00 +20°C° 0 mm 3 mps 666 mmHg 84%
    09:00 +21°C° 0 mm 3 mps 666 mmHg 78%
    10:00 +22°C° 0 mm 3 mps 666 mmHg 73%
    11:00 +24°C° 0 mm 3 mps 666 mmHg 67%
    12:00 +26°C° 0 mm 3 mps 666 mmHg 62%
    13:00 +27°C° 0 mm 3 mps 666 mmHg 56%
    14:00 +27°C° 0.2 mm 2 mps 665 mmHg 55%
    15:00 +28°C° 0.2 mm 2 mps 665 mmHg 54%
    16:00 +28°C° 0.2 mm 2 mps 664 mmHg 53%
    17:00 +26°C° 0 mm 2 mps 664 mmHg 60%
    18:00 +24°C° 0 mm 2 mps 664 mmHg 68%
    19:00 +20°C° 0 mm 2 mps 664 mmHg 75%
    20:00 +21°C° 0 mm 1 mps 664 mmHg 78%
    21:00 +20°C° 0 mm 1 mps 664 mmHg 81%
    22:00 +19°C° 0 mm 1 mps 664 mmHg 83%
    23:00 +19°C° 0 mm 1 mps 664 mmHg 82%

    Tomorrow, 26 February, Sunday

    Time Temperature Precipitation Wind Pressure Humidity
    00:00 +19°C° 0 mm 1 mps 664 mmHg 81%
    01:00 +19°C° 0 mm 2 mps 664 mmHg 80%
    02:00 +18°C° 0.1 mm 2 mps 664 mmHg 81%
    03:00 +18°C° 0.1 mm 2 mps 664 mmHg 82%
    04:00 +18°C° 0.1 mm 2 mps 664 mmHg 83%
    05:00 +19°C° 0.1 mm 2 mps 664 mmHg 83%
    06:00 +20°C° 0.1 mm 1 mps 664 mmHg 83%
    07:00 +20°C° 0.1 mm 1 mps 665 mmHg 84%
    08:00 +21°C° 0 mm 2 mps 665 mmHg 76%
    09:00 +24°C° 0 mm 2 mps 665 mmHg 68%
    10:00 +26°C° 0 mm 2 mps 666 mmHg 60%
    11:00 +27°C° 0.1 mm 1 mps 666 mmHg 57%
    12:00 +29°C° 0.1 mm 1 mps 665 mmHg 54%
    13:00 +30°C° 0.1 mm 1 mps 665 mmHg 51%
    14:00 +30°C° 0.6 mm 1 mps 664 mmHg 55%
    15:00 +29°C° 0.6 mm 1 mps 663 mmHg 59%
    16:00 +28°C° 0.6 mm 2 mps 662 mmHg 63%
    17:00 +26°C° 0.6 mm 2 mps 662 mmHg 69%
    18:00 +24°C° 0.6 mm 2 mps 662 mmHg 75%
    19:00 +21°C° 0.6 mm 2 mps 662 mmHg 81%
    20:00 +21°C° 0.1 mm 2 mps 662 mmHg 81%
    21:00 +20°C° 0.1 mm 2 mps 663 mmHg 81%
    22:00 +19°C° 0.1 mm 2 mps 663 mmHg 81%
    23:00 +19°C° 0.1 mm 2 mps 663 mmHg 84%

    Day after tomorrow, 27 February, Monday

    Time Temperature Precipitation Wind Pressure Humidity
    00:00 +18°C° 0.1 mm 2 mps 662 mmHg 86%
    01:00 +18°C° 0.1 mm 2 mps 662 mmHg 89%
    02:00 +18°C° 0.6 mm 2 mps 662 mmHg 91%
    03:00 +18°C° 0.6 mm 2 mps 662 mmHg 93%
    04:00 +18°C° 0.6 mm 2 mps 662 mmHg 95%
    05:00 +18°C° 0.4 mm 2 mps 662 mmHg 94%
    06:00 +18°C° 0.4 mm 2 mps 663 mmHg 94%
    07:00 +18°C° 0.4 mm 2 mps 663 mmHg 93%
    08:00 +20°C° 0 mm 2 mps 664 mmHg 82%
    09:00 +23°C° 0 mm 2 mps 665 mmHg 71%
    10:00 +25°C° 0 mm 2 mps 665 mmHg 60%
    11:00 +27°C° 0 mm 2 mps 665 mmHg 55%
    12:00 +28°C° 0 mm 2 mps 664 mmHg 50%
    13:00 +30°C° 0 mm 2 mps 664 mmHg 46%
    14:00 +29°C° 0.2 mm 2 mps 663 mmHg 49%
    15:00 +29°C° 0.2 mm 3 mps 663 mmHg 52%
    16:00 +29°C° 0.2 mm 3 mps 662 mmHg 55%
    17:00 +27°C° 0.2 mm 3 mps 662 mmHg 61%
    18:00 +25°C° 0.2 mm 2 mps 662 mmHg 66%
    19:00 +23°C° 0.2 mm 2 mps 662 mmHg 72%
    20:00 +21°C° 0 mm 2 mps 663 mmHg 72%
    21:00 +20°C° 0 mm 2 mps 663 mmHg 73%
    22:00 +21°C° 0 mm 1 mps 663 mmHg 73%
    23:00 +19°C° 0 mm 2 mps 663 mmHg 78%

    28 February, Tuesday

    Time Temperature Precipitation Wind Pressure Humidity
    00:00 +19°C° 0 mm 2 mps 663 mmHg 82%
    01:00 +18°C° 0 mm 3 mps 662 mmHg 87%
    02:00 +18°C° 0 mm 3 mps 662 mmHg 90%
    03:00 +18°C° 0 mm 3 mps 662 mmHg 93%
    04:00 +18°C° 0 mm 3 mps 662 mmHg 96%
    05:00 +18°C° 0 mm 3 mps 663 mmHg 95%
    06:00 +18°C° 0 mm 3 mps 663 mmHg 94%
    07:00 +18°C° 0 mm 3 mps 664 mmHg 93%
    08:00 +20°C° 0 mm 3 mps 664 mmHg 83%
    09:00 +22°C° 0 mm 3 mps 665 mmHg 72%
    10:00 +25°C° 0 mm 3 mps 666 mmHg 61%
    11:00 +27°C° 0 mm 3 mps 665 mmHg 54%
    12:00 +28°C° 0 mm 3 mps 665 mmHg 47%
    13:00 +30°C° 0 mm 4 mps 665 mmHg 40%
    14:00 +29°C° 0 mm 4 mps 664 mmHg 42%
    15:00 +29°C° 0 mm 4 mps 664 mmHg 43%
    16:00 +28°C° 0 mm 4 mps 663 mmHg 44%
    17:00 +27°C° 0 mm 3 mps 663 mmHg 48%
    18:00 +25°C° 0 mm 3 mps 663 mmHg 52%
    19:00 +23°C° 0 mm 2 mps 663 mmHg 57%
    20:00 +21°C° 0 mm 2 mps 664 mmHg 61%
    21:00 +20°C° 0 mm 2 mps 664 mmHg 66%
    22:00 +19°C° 0 mm 2 mps 664 mmHg 70%
    23:00 +18°C° 0 mm 2 mps 664 mmHg 76%

    1 March, Wednesday

    Time Temperature Precipitation Wind Pressure Humidity
    00:00 +18°C° 0 mm 2 mps 663 mmHg 81%
    01:00 +17°C° 0 mm 2 mps 663 mmHg 86%
    02:00 +17°C° 0 mm 2 mps 663 mmHg 89%
    03:00 +16°C° 0 mm 2 mps 663 mmHg 91%
    04:00 +16°C° 0 mm 2 mps 662 mmHg 93%
    05:00 +17°C° 0 mm 2 mps 663 mmHg 92%
    06:00 +17°C° 0 mm 2 mps 664 mmHg 91%
    07:00 +18°C° 0 mm 2 mps 664 mmHg 89%
    08:00 +21°C° 0 mm 2 mps 665 mmHg 75%
    09:00 +25°C° 0 mm 2 mps 666 mmHg 61%
    10:00 +27°C° 0 mm 3 mps 666 mmHg 47%
    11:00 +29°C° 0 mm 3 mps 666 mmHg 42%
    12:00 +30°C° 0 mm 3 mps 665 mmHg 37%
    13:00 +33°C° 0 mm 4 mps 665 mmHg 32%
    14:00 +33°C° 0 mm 4 mps 665 mmHg 33%
    15:00 +32°C° 0 mm 4 mps 664 mmHg 34%
    16:00 +32°C° 0 mm 4 mps 664 mmHg 35%
    17:00 +29°C° 0 mm 4 mps 664 mmHg 41%
    18:00 +26°C° 0 mm 3 mps 664 mmHg 47%
    19:00 +24°C° 0 mm 3 mps 664 mmHg 53%
    20:00 +22°C° 0 mm 3 mps 664 mmHg 55%
    21:00 +21°C° 0 mm 3 mps 665 mmHg 57%
    22:00 +21°C° 0 mm 3 mps 665 mmHg 60%
    23:00 +20°C° 0 mm 3 mps 665 mmHg 68%

    2 March, Thursday

    Time Temperature Precipitation Wind Pressure Humidity
    00:00 +19°C° 0 mm 3 mps 664 mmHg 77%
    01:00 +18°C° 0 mm 3 mps 664 mmHg 86%
    02:00 +17°C° 0 mm 2 mps 664 mmHg 89%
    03:00 +16°C° 0 mm 2 mps 663 mmHg 92%
    04:00 +16°C° 0 mm 2 mps 663 mmHg 95%
    05:00 +16°C° 0 mm 1 mps 664 mmHg 93%
    06:00 +18°C° 0 mm 1 mps 664 mmHg 90%
    07:00 +19°C° 0 mm 1 mps 665 mmHg 88%
    08:00 +22°C° 0 mm 1 mps 665 mmHg 74%
    09:00 +25°C° 0 mm 2 mps 666 mmHg 61%
    10:00 +28°C° 0 mm 2 mps 667 mmHg 48%
    11:00 +29°C° 0 mm 2 mps 666 mmHg 43%
    12:00 +30°C° 0 mm 3 mps 666 mmHg 38%
    13:00 +33°C° 0 mm 3 mps 665 mmHg 33%
    14:00 +31°C° 0 mm 3 mps 665 mmHg 33%
    15:00 +31°C° 0 mm 3 mps 664 mmHg 33%
    16:00 +31°C° 0 mm 3 mps 664 mmHg 34%
    17:00 +29°C° 0 mm 3 mps 664 mmHg 39%
    18:00 +26°C° 0 mm 3 mps 664 mmHg 45%
    19:00 +24°C° 0 mm 2 mps 664 mmHg 50%
    20:00 +23°C° 0 mm 2 mps 664 mmHg 56%
    21:00 +21°C° 0 mm 2 mps 664 mmHg 63%
    22:00 +20°C° 0 mm 2 mps 664 mmHg 69%
    23:00 +19°C° 0 mm 2 mps 664 mmHg 74%
    Show more